Date,TemperatureHighF,TemperatureAvgF,TemperatureLowF,DewpointHighF,DewpointAvgF,DewpointLowF,HumidityHigh,HumidityAvg,HumidityLow,PressureMaxIn,PressureMinIn,WindSpeedMaxMPH,WindSpeedAvgMPH,GustSpeedMaxMPH,PrecipitationSumIn
2013-1-1,23.2,16.8,10.1,20.2,13.5,8.4,100,87,67,30.37,30.21,6,0,8,0.00
2013-1-2,34.1,23.7,11.4,30.7,20.8,9.8,93,89,79,30.28,30.11,6,1,10,0.00
2013-1-3,34.2,25.7,13.4,30.0,22.9,11.9,100,89,83,30.46,30.27,6,0,9,0.00
2013-1-4,33.9,21.5,12.2,26.1,18.1,10.5,100,87,69,30.40,30.18,8,1,12,0.00
2013-1-5,40.5,31.5,15.6,34.3,27.3,14.0,100,84,70,30.25,30.06,12,3,20,0.00
2013-1-6,43.1,28.9,15.4,32.1,24.0,1.7,100,83,32,30.40,30.18,7,1,11,0.00
2013-1-7,47.4,38.2,29.3,35.0,30.3,27.0,100,73,59,30.18,29.97,15,4,29,0.00
2013-1-8,48.3,37.2,28.0,37.0,31.8,26.1,100,81,63,30.21,29.90,12,2,22,0.00
2013-1-9,57.9,36.3,24.1,39.5,30.4,22.5,100,81,45,30.48,30.21,4,0,7,0.00
2013-1-10,43.5,38.5,29.5,42.0,36.8,27.6,100,93,82,30.35,29.71,8,1,16,0.00
2013-1-11,58.2,48.7,32.7,56.8,43.2,27.3,100,82,40,29.84,29.43,15,7,24,0.00
2013-1-12,32.8,23.6,16.6,27.7,16.4,10.3,84,73,61,30.17,29.84,10,3,20,0.00
2013-1-13,25.5,16.7,10.9,13.0,10.6,7.1,90,77,56,30.39,30.15,8,2,14,0.00
2013-1-14,30.7,18.7,7.2,19.1,13.2,5.2,92,80,57,30.52,30.35,5,0,8,0.00
2013-1-15,36.9,23.9,12.1,22.8,17.5,10.2,100,78,51,30.40,30.13,6,0,11,0.00
2013-1-16,55.3,36.0,22.2,38.8,28.7,18.9,90,76,52,30.27,30.01,8,1,14,0.00
2013-1-17,53.2,35.2,22.9,37.7,29.3,-12.0,100,81,7,30.51,30.26,8,0,12,0.00
2013-1-18,59.9,43.4,27.4,38.3,33.3,25.1,100,70,41,30.35,29.96,16,4,26,0.00
2013-1-19,61.1,43.8,31.5,36.0,32.7,26.5,91,68,33,30.33,29.93,10,2,16,0.00
2013-1-20,34.0,24.8,17.5,26.4,17.2,-16.8,100,73,17,30.47,30.32,10,2,16,0.00
2013-1-21,19.7,17.2,15.5,16.7,12.6,8.6,100,82,67,30.50,30.37,8,1,12,0.00
2013-1-22,32.2,21.2,13.4,22.9,13.4,8.4,100,72,52,30.40,30.24,8,1,13,0.00
2013-1-23,44.2,26.0,14.2,29.5,19.6,12.0,100,78,55,30.49,30.18,11,2,19,0.00
2013-1-24,26.7,18.5,7.3,26.1,9.0,2.7,100,67,49,30.53,30.16,13,3,17,0.00
2013-1-25,51.9,32.5,17.5,32.7,22.0,13.1,100,67,42,30.24,30.16,19,0,10,0.00
2013-1-26,59.9,41.4,22.8,33.1,26.2,20.5,94,60,27,30.25,29.99,13,3,23,0.00
2013-1-27,57.1,45.9,40.8,54.0,43.6,29.4,100,91,54,30.00,29.66,11,4,19,0.00
2013-1-28,71.7,51.9,33.2,59.3,45.3,32.2,96,81,40,29.86,29.55,12,4,23,0.00
2013-1-29,64.8,38.0,32.8,59.9,35.7,31.6,95,91,80,29.73,29.54,13,6,21,0.00
2013-1-30,32.8,24.3,15.6,31.6,21.6,11.2,100,89,76,29.96,29.61,11,4,19,0.00
2013-1-31,19.4,13.9,2.8,17.0,9.6,0.6,93,83,69,30.49,29.94,12,3,21,0.00
2013-2-1,28.8,17.7,3.2,22.2,12.6,1.1,92,80,69,30.47,30.11,12,3,22,0.00
2013-2-2,48.3,36.0,21.7,39.5,30.6,18.2,93,81,68,30.23,30.10,9,2,14,0.00
2013-2-3,48.7,38.8,28.1,33.6,30.2,25.1,90,72,50,30.29,29.74,10,2,17,0.00
2013-2-4,35.6,30.3,25.7,32.1,27.7,23.8,100,89,79,30.04,29.80,10,2,16,0.00
2013-2-5,55.6,37.1,25.1,38.8,30.1,23.6,100,78,46,30.10,29.90,8,1,12,0.00
2013-2-6,64.3,47.2,28.1,51.2,39.1,26.0,92,75,44,30.09,29.81,13,3,22,0.00
2013-2-7,50.2,42.0,31.2,46.3,37.0,28.6,93,82,62,30.28,29.86,11,5,21,0.00
2013-2-8,45.9,34.6,28.0,36.7,30.3,26.2,100,84,63,30.37,30.14,9,3,14,0.00
2013-2-9,55.8,41.6,30.7,43.8,36.7,28.9,93,83,64,30.17,29.65,14,7,27,0.00
2013-2-10,47.1,40.6,35.2,44.8,35.3,-47.6,94,81,70,29.94,29.36,18,10,31,0.00
2013-2-11,44.6,34.4,25.3,29.9,26.2,22.4,100,72,51,30.20,29.93,10,3,17,0.00
2013-2-12,50.4,34.6,22.4,30.6,25.7,20.4,92,73,38,30.20,29.96,10,1,14,0.00
2013-2-13,55.7,39.2,23.1,33.7,28.3,21.0,92,68,36,29.98,29.79,11,2,16,0.00
2013-2-14,48.9,40.5,27.2,36.2,31.1,23.0,89,70,47,30.32,29.85,11,3,22,0.00
2013-2-15,38.8,27.3,17.4,31.4,22.0,15.3,94,81,55,30.44,30.29,10,2,18,0.00
2013-2-16,42.4,28.5,15.4,35.7,21.3,13.7,100,76,51,30.38,30.01,13,2,19,0.00
2013-2-17,65.7,43.7,24.1,50.5,30.6,-39.4,100,63,31,30.01,29.53,12,2,20,0.00
2013-2-18,47.4,37.0,24.1,36.3,30.1,19.9,100,76,58,30.12,29.50,14,5,24,0.00
2013-2-19,34.2,25.2,17.2,21.3,14.6,1.2,100,66,34,30.39,30.12,10,3,17,0.00
2013-2-20,27.4,20.6,12.9,25.2,12.0,7.8,100,69,56,30.40,30.15,11,2,16,0.00
2013-2-21,25.4,22.9,19.9,22.8,19.3,14.4,94,86,63,30.20,29.80,14,3,24,0.00
2013-2-22,27.2,19.9,12.2,20.9,16.8,10.5,93,87,74,30.09,29.84,8,2,13,0.00
2013-2-23,38.4,22.6,5.6,31.1,18.9,3.8,93,86,72,30.08,29.88,10,2,14,0.00
2013-2-24,43.7,32.3,17.2,36.6,27.2,-48.0,100,82,62,30.04,29.91,9,2,15,0.00
2013-2-25,38.9,34.8,31.4,34.0,32.0,29.4,100,89,80,30.04,29.84,12,6,20,0.00
2013-2-26,36.6,31.3,28.2,32.1,29.0,26.3,100,91,82,29.94,29.77,11,6,18,0.00
2013-2-27,42.7,33.0,26.2,34.6,28.7,24.0,100,84,65,30.15,29.91,13,5,19,0.00
2013-2-28,36.7,33.1,29.8,30.6,28.6,26.2,90,83,74,30.26,30.13,10,4,16,0.00
2013-3-1,35.2,29.1,24.5,26.3,23.1,20.1,100,78,63,30.39,30.24,10,4,17,0.00
2013-3-2,44.4,29.4,15.4,32.3,22.6,13.7,100,77,52,30.40,30.11,7,1,12,0.00
2013-3-3,54.9,40.0,29.0,40.2,32.5,-45.2,88,75,56,30.11,29.68,10,3,16,0.00
2013-3-4,45.4,38.9,32.8,38.8,34.4,30.0,100,83,72,30.08,29.64,11,3,19,0.00
2013-3-5,38.1,30.9,24.4,33.6,22.8,19.4,92,71,57,30.43,30.07,12,5,21,0.00
2013-3-6,46.1,30.3,16.0,28.3,22.9,14.3,93,75,48,30.47,30.24,8,1,13,0.00
2013-3-7,60.1,40.8,25.2,37.5,29.7,22.8,90,68,35,30.27,30.07,12,5,20,0.00
2013-3-8,65.0,50.0,35.2,55.6,41.1,30.9,100,72,52,30.16,29.89,15,5,30,0.00
2013-3-9,60.6,54.1,40.3,55.5,49.5,38.3,93,84,71,29.91,29.55,16,7,25,0.00
2013-3-10,40.4,29.9,23.2,38.3,27.9,19.2,100,92,89,30.01,29.64,14,9,27,0.00
2013-3-11,41.0,27.6,17.2,28.6,22.1,14.9,92,80,50,30.04,29.92,9,4,13,0.00
2013-3-12,43.6,35.9,25.3,31.2,28.2,22.8,91,74,54,30.40,30.03,13,3,24,0.00
2013-3-13,49.7,33.2,18.8,29.7,24.5,17.0,93,73,39,30.50,30.25,10,1,14,0.00
2013-3-14,73.8,51.8,35.7,52.7,36.4,27.9,100,60,24,30.26,30.09,11,2,15,0.00
2013-3-15,81.2,56.3,35.4,48.6,38.9,31.7,91,61,17,30.10,29.65,12,2,19,0.00
2013-3-16,49.1,38.4,33.6,44.5,33.6,28.8,100,83,73,30.16,29.82,14,6,23,0.00
2013-3-17,47.7,36.6,28.9,37.1,31.4,26.3,94,81,64,30.14,29.68,13,4,22,0.00
2013-3-18,51.7,40.7,32.4,36.3,30.2,21.7,95,69,38,30.11,29.74,14,4,26,0.00
2013-3-19,47.8,38.5,33.9,41.3,31.5,17.7,94,76,39,30.32,30.09,8,1,11,0.00
2013-3-20,44.2,32.4,20.5,33.5,21.0,16.7,91,64,38,30.45,30.10,9,3,16,0.00
2013-3-21,39.5,32.0,28.3,29.4,23.3,16.8,93,70,59,30.10,29.86,12,4,18,0.00
2013-3-22,36.4,31.8,27.9,33.4,29.3,26.0,94,90,83,30.03,29.95,7,1,10,0.00
2013-3-23,38.1,33.6,30.4,33.0,29.9,27.8,100,86,69,30.09,29.98,15,5,28,0.00
2013-3-24,34.8,28.7,24.4,29.3,24.4,20.4,100,84,68,30.16,30.00,12,7,23,0.00
2013-3-25,33.7,28.7,24.3,29.2,24.1,20.5,100,82,71,30.40,30.14,11,5,20,0.00
2013-3-26,46.3,31.9,19.1,29.3,23.7,16.7,90,73,46,30.44,30.25,8,1,12,0.00
2013-3-27,56.1,42.6,31.2,45.0,31.6,25.9,100,67,44,30.29,30.15,12,3,21,0.00
2013-3-28,65.5,47.7,26.1,57.2,34.7,24.5,100,65,30,30.25,30.11,8,1,12,0.00
2013-3-29,72.6,56.8,35.0,65.0,41.3,33.0,100,60,27,30.23,30.04,10,3,17,0.00
2013-3-30,71.2,58.1,49.7,55.3,49.5,42.9,91,74,46,30.09,29.90,8,2,14,0.00
2013-3-31,64.1,54.4,44.0,48.4,39.9,-29.8,92,63,1,30.10,29.86,11,2,21,0.00
2013-4-1,46.1,37.5,28.9,37.9,26.8,21.9,91,67,44,30.36,30.12,13,5,24,0.00
2013-4-2,54.4,39.1,22.0,46.8,25.1,19.6,100,61,34,30.37,30.24,8,1,12,0.00
2013-4-3,53.7,41.6,26.7,31.2,28.3,23.7,90,61,39,30.39,30.26,8,1,13,0.00
2013-4-4,67.2,47.1,25.9,42.4,34.8,23.7,92,66,35,30.28,30.07,10,1,14,0.00
2013-4-5,74.0,54.9,33.2,44.9,38.0,31.2,92,59,23,30.18,29.75,16,6,26,0.00
2013-4-6,73.3,63.2,54.8,50.3,46.0,42.0,75,55,35,29.83,29.65,14,5,23,0.00
2013-4-7,77.1,58.5,41.4,54.9,45.1,38.1,93,66,26,29.86,29.64,12,3,23,0.00
2013-4-8,75.8,63.6,51.2,63.6,58.1,49.3,93,83,62,29.72,29.62,11,3,17,0.00
2013-4-9,67.7,54.1,36.0,63.9,51.2,34.5,95,90,80,30.09,29.57,13,6,22,0.00
2013-4-10,37.2,34.9,33.2,35.7,33.4,31.8,95,94,92,30.01,29.80,11,5,16,0.00
2013-4-11,39.3,35.2,31.7,37.1,30.8,27.8,100,84,72,29.89,29.73,12,6,20,0.00
2013-4-12,52.4,40.4,31.2,38.0,32.9,28.3,91,75,53,30.06,29.81,12,4,21,0.00
2013-4-13,68.8,50.3,31.7,49.8,40.6,30.0,94,71,44,30.07,29.57,12,4,25,0.00
2013-4-14,70.8,62.3,47.7,55.0,45.0,31.4,72,54,28,29.75,29.36,21,8,32,0.00
2013-4-15,51.4,45.2,38.4,47.3,32.7,27.3,100,62,45,30.08,29.74,10,3,16,0.00
2013-4-16,49.7,44.0,37.1,46.8,34.2,31.4,100,68,52,30.23,30.03,13,5,20,0.00
2013-4-17,46.7,43.7,39.0,45.2,41.5,37.3,95,92,70,30.14,29.66,18,4,31,0.00
2013-4-18,39.5,36.5,33.1,37.7,33.1,29.1,95,87,74,30.02,29.71,13,7,26,0.00
2013-4-19,52.8,40.9,31.5,37.4,30.9,25.1,87,69,45,30.14,29.97,11,4,19,0.00
2013-4-20,55.0,42.2,27.6,39.6,32.7,25.8,94,71,46,30.25,30.09,12,3,21,0.00
2013-4-21,69.8,58.1,43.9,63.5,43.8,14.9,100,61,15,30.16,29.99,16,5,27,0.00
2013-4-22,60.2,49.8,36.3,50.8,44.6,33.7,94,83,64,30.27,29.95,13,4,22,0.00
2013-4-23,41.4,35.3,30.3,34.1,30.9,28.8,96,84,69,30.27,30.14,14,6,28,0.00
2013-4-24,60.0,43.7,26.9,55.4,32.8,24.4,100,68,41,30.27,30.11,15,2,23,0.00
2013-4-25,70.5,53.2,33.0,44.1,38.1,31.3,94,62,29,30.32,30.07,13,3,25,0.00
2013-4-26,65.6,57.4,51.7,53.5,48.1,41.2,88,71,58,30.24,30.08,14,5,25,0.00
2013-4-27,67.8,56.0,50.3,54.1,50.2,47.8,92,81,57,30.22,30.00,6,1,9,0.00
2013-4-28,81.5,64.0,47.4,71.6,52.8,45.1,100,70,40,30.01,29.53,13,4,23,0.00
2013-4-29,87.2,70.8,53.0,60.9,56.3,50.4,91,63,32,29.78,29.55,12,2,22,0.00
2013-4-30,86.8,76.5,64.4,71.4,58.0,52.6,100,53,38,29.82,29.56,14,6,24,0.00
2013-5-1,64.6,48.5,36.8,55.1,43.1,35.1,94,82,64,30.40,29.81,16,8,30,0.00
2013-5-2,49.8,40.9,34.5,45.3,35.2,31.8,100,81,55,30.55,30.36,13,6,24,0.00
2013-5-3,54.2,43.9,33.7,38.2,34.4,30.9,91,71,47,30.42,30.01,13,4,22,0.00
2013-5-4,46.2,43.0,39.1,43.0,39.5,33.4,94,87,65,30.16,29.94,13,7,22,0.00
2013-5-5,57.3,49.4,43.1,53.9,45.6,40.8,100,87,76,30.20,30.06,9,4,15,0.00
2013-5-6,69.5,56.3,49.5,56.1,50.7,47.6,93,82,56,30.19,30.06,6,1,10,0.00
2013-5-7,76.6,62.2,44.6,57.5,52.0,42.9,94,72,46,30.11,29.95,9,1,13,0.00
2013-5-8,78.3,67.2,58.2,61.5,58.6,54.3,92,75,52,30.00,29.86,9,2,13,0.00
2013-5-9,69.2,61.8,57.3,61.4,58.3,-30.0,93,88,72,30.01,29.85,14,2,21,0.00
2013-5-10,71.6,60.9,54.0,59.9,52.9,49.9,100,76,48,30.15,30.01,9,2,15,0.00
2013-5-11,67.8,57.3,44.6,50.5,39.8,24.0,93,57,23,30.31,30.09,12,4,26,0.00
2013-5-12,70.0,54.5,36.9,59.4,38.3,2.5,100,60,9,30.32,30.06,7,1,14,0.00
2013-5-13,85.0,66.9,47.7,57.4,49.0,28.2,86,56,23,30.16,29.92,11,3,18,0.00
2013-5-14,95.3,77.8,60.4,58.0,54.0,42.9,86,49,17,29.92,29.73,15,5,30,0.00
2013-5-15,88.6,77.0,62.8,66.7,60.1,55.7,82,57,34,29.89,29.77,10,2,15,0.00
2013-5-16,82.3,71.6,62.7,66.0,62.7,60.1,93,75,51,29.92,29.80,10,2,17,0.00
2013-5-17,85.6,73.4,59.7,64.6,61.9,57.1,91,69,44,29.94,29.84,8,1,14,0.00
2013-5-18,85.5,74.7,63.2,73.0,66.7,60.2,91,76,61,29.93,29.70,15,3,28,0.00
2013-5-19,81.3,68.6,60.9,69.5,62.3,31.6,92,81,29,29.89,29.50,12,2,22,0.00
2013-5-20,76.1,66.3,56.6,63.8,57.8,51.7,92,74,47,29.75,29.61,10,3,16,0.00
2013-5-21,70.5,62.6,54.7,54.5,52.2,49.4,91,69,50,29.81,29.72,10,3,16,0.00
2013-5-22,68.5,60.0,50.7,55.1,51.5,47.3,89,74,59,30.02,29.80,10,2,17,0.00
2013-5-23,68.4,60.1,53.0,56.4,53.3,49.6,90,78,62,30.25,30.01,7,1,12,0.00
2013-5-24,76.9,64.8,50.6,59.2,54.4,48.6,93,71,50,30.31,30.08,11,3,19,0.00
2013-5-25,84.6,74.2,63.3,68.1,64.2,58.8,92,72,54,30.15,29.96,13,4,22,0.00
2013-5-26,85.7,76.4,70.5,71.3,67.5,-24.2,85,74,14,30.02,29.77,11,6,24,0.00
2013-5-27,80.5,72.3,0.0,71.7,66.0,0.0,93,80,66,29.91,26.47,19,5,42,0.00
2013-5-28,85.9,74.7,66.7,73.9,69.0,64.7,93,82,65,0.00,0.00,7,1,14,0.00
2013-5-29,80.7,71.5,63.5,71.6,66.8,60.5,92,85,67,0.00,0.00,12,4,29,0.00
2013-5-30,76.9,65.6,58.9,64.2,60.3,56.4,93,83,58,29.68,0.00,13,3,22,0.00
2013-5-31,80.5,69.6,58.8,61.1,57.5,52.6,93,68,38,29.77,29.60,8,1,13,0.00
2013-6-1,68.1,62.8,56.7,61.7,53.6,50.2,100,71,63,30.04,29.72,10,2,19,0.00
2013-6-2,71.3,61.6,54.3,52.4,49.7,46.7,80,66,44,30.13,30.00,7,1,13,0.00
2013-6-3,78.2,65.0,50.7,59.3,53.9,48.3,91,69,42,30.04,29.79,12,3,24,0.00
2013-6-4,80.3,71.2,63.4,68.2,63.5,58.3,87,76,61,29.95,29.80,9,1,14,0.00
2013-6-5,73.9,66.5,56.0,67.0,59.8,54.1,100,80,55,30.04,29.90,8,1,15,0.00
2013-6-6,76.4,64.6,51.9,67.2,55.4,50.1,100,74,44,30.02,29.93,6,0,11,0.00
2013-6-7,78.2,65.3,50.7,58.9,53.5,48.9,94,69,40,30.04,29.88,7,0,10,0.00
2013-6-8,80.8,68.4,58.3,66.8,59.3,53.4,93,73,53,29.90,29.67,14,3,25,0.00
2013-6-9,82.4,70.4,59.1,62.1,57.8,-25.4,93,68,35,29.86,29.67,11,2,26,0.00
2013-6-10,87.3,72.4,55.2,68.2,61.2,53.3,93,70,42,29.89,29.75,8,1,16,0.00
2013-6-11,96.8,83.7,74.0,84.6,65.9,57.4,100,58,29,29.83,29.67,14,4,24,0.00
2013-6-12,95.3,84.0,68.4,73.4,65.6,56.8,73,55,29,30.04,29.66,13,3,28,0.00
2013-6-13,80.8,71.3,59.6,74.6,59.0,55.6,100,66,45,30.11,29.94,7,1,13,0.00
2013-6-14,95.8,80.8,67.9,75.6,68.7,60.9,84,67,46,30.01,29.75,11,3,20,0.00
2013-6-15,83.4,77.2,71.4,71.6,68.5,65.3,90,74,56,29.97,29.84,8,1,14,0.00
2013-6-16,85.8,76.8,69.9,71.5,68.6,43.0,91,76,29,30.00,29.90,7,1,12,0.00
2013-6-17,90.3,79.0,69.5,71.2,65.6,-17.3,91,66,30,30.01,29.88,7,0,10,0.00
2013-6-18,85.1,74.6,64.2,65.2,63.2,59.7,91,69,44,30.04,29.95,11,1,20,0.00
2013-6-19,88.4,76.7,65.4,68.3,64.4,61.4,90,67,43,30.01,29.89,10,3,20,0.00
2013-6-20,92.2,81.5,72.0,85.5,70.2,64.5,100,69,53,29.95,29.78,15,6,28,0.00
2013-6-21,95.8,85.7,77.5,73.5,71.2,68.7,75,62,45,29.88,29.78,15,7,27,0.00
2013-6-22,91.0,84.1,75.4,72.0,69.5,65.7,79,61,44,29.94,29.76,16,5,30,0.00
2013-6-23,90.3,78.4,65.9,75.0,68.9,-18.6,92,73,57,29.94,29.75,10,4,17,0.00
2013-6-24,87.7,80.1,72.3,74.9,69.9,67.1,91,71,56,29.94,29.71,17,5,33,0.00
2013-6-25,93.2,82.6,67.7,75.2,70.6,58.8,90,67,44,29.85,29.59,19,6,45,0.00
2013-6-26,98.0,84.5,70.5,83.7,68.1,57.1,100,62,27,29.89,29.67,5,0,11,0.00
2013-6-27,84.8,76.8,70.9,73.4,69.1,66.6,89,77,65,30.00,29.87,10,1,18,0.00
2013-6-28,88.8,77.7,65.7,70.5,63.0,55.2,93,65,34,30.01,29.91,8,1,14,0.00
2013-6-29,84.8,74.7,64.7,73.8,58.9,-28.6,100,60,34,29.95,29.88,9,2,24,0.00
2013-6-30,79.5,70.0,58.8,61.9,58.1,53.0,92,68,41,30.10,29.94,11,1,20,0.00
2013-7-1,83.7,70.0,54.5,59.3,55.1,47.0,92,64,29,30.19,30.10,9,1,14,0.00
2013-7-2,83.6,70.8,58.2,62.1,57.5,51.2,92,66,35,30.17,30.06,8,0,14,0.00
2013-7-3,87.0,71.9,56.9,62.7,57.7,51.9,93,65,31,30.09,29.95,8,1,14,0.00
2013-7-4,88.2,75.0,59.6,62.7,58.0,50.8,86,58,30,30.01,29.89,9,2,16,0.00
2013-7-5,92.2,79.4,66.8,65.9,61.6,53.1,80,56,28,29.93,29.82,13,3,23,0.00
2013-7-6,88.6,77.8,69.4,68.0,64.6,-17.6,76,64,47,29.88,29.81,13,4,23,0.00
2013-7-7,97.7,84.6,73.3,72.9,65.5,-15.3,73,54,28,29.91,29.78,12,4,22,0.00
2013-7-8,98.8,87.0,77.4,72.0,69.2,64.9,74,56,33,29.99,29.88,11,3,19,0.00
2013-7-9,101.2,88.8,75.6,76.0,71.6,66.8,90,59,34,29.99,29.83,10,2,14,0.00
2013-7-10,90.4,81.3,72.8,75.7,67.9,62.6,90,65,41,30.08,29.92,13,1,23,0.00
2013-7-11,90.1,78.9,68.7,67.4,63.6,60.3,86,61,38,30.12,29.94,8,1,16,0.00
2013-7-12,95.3,82.4,70.5,85.7,68.1,20.4,100,62,47,30.00,29.86,11,2,21,0.00
2013-7-13,90.0,82.5,76.4,75.2,70.9,65.7,74,67,57,29.99,29.90,10,2,15,0.00
2013-7-14,89.5,80.1,70.6,77.7,63.4,43.0,100,58,26,30.12,29.94,8,2,15,0.00
2013-7-15,90.8,79.5,66.1,68.8,64.6,61.8,86,62,41,30.19,30.09,9,1,14,0.00
2013-7-16,91.2,80.7,68.1,69.9,66.4,64.4,90,64,41,30.27,30.18,9,1,13,0.00
2013-7-17,93.7,83.0,70.8,70.7,68.6,65.6,87,63,41,30.33,30.17,9,1,16,0.00
2013-7-18,95.5,84.0,71.8,71.3,67.8,63.9,86,60,36,30.19,29.96,11,3,20,0.00
2013-7-19,98.0,83.3,71.8,77.5,69.6,64.2,88,66,34,30.00,29.85,8,1,12,0.00
2013-7-20,85.1,75.5,69.8,74.2,69.5,66.0,92,82,62,29.98,29.85,6,0,11,0.00
2013-7-21,89.0,78.3,67.8,72.9,69.7,-19.1,93,76,54,29.91,29.78,8,2,14,0.00
2013-7-22,93.4,81.5,70.0,76.6,71.8,64.9,92,74,43,29.84,29.75,12,1,18,0.00
2013-7-23,82.8,74.8,69.5,71.5,68.0,64.5,91,79,61,30.03,29.78,9,1,17,0.00
2013-7-24,88.7,75.4,62.1,67.0,64.2,-16.0,93,70,42,30.09,29.96,6,0,10,0.00
2013-7-25,76.5,72.4,68.3,71.7,67.7,63.6,91,85,74,30.08,29.98,7,0,13,0.00
2013-7-26,84.8,75.2,63.0,70.2,64.1,53.3,93,71,40,30.12,29.97,8,1,15,0.00
2013-7-27,77.8,66.2,57.2,62.6,56.7,48.3,92,74,35,30.16,30.00,8,0,10,0.00
2013-7-28,77.7,65.3,52.7,61.1,56.5,50.9,93,75,47,30.06,30.01,7,1,12,0.00
2013-7-29,68.7,65.7,62.6,66.5,63.4,60.3,93,92,84,30.05,29.94,6,0,11,0.00
2013-7-30,80.4,72.8,68.3,71.0,68.5,66.5,94,86,70,30.11,29.98,5,0,9,0.00
2013-7-31,86.6,75.6,66.3,71.4,67.9,64.2,94,78,52,30.17,30.05,5,0,8,0.00
2013-8-1,89.7,77.7,65.8,71.8,67.8,62.1,93,74,40,30.12,29.89,10,2,16,0.00
2013-8-2,84.1,75.0,65.6,73.8,68.7,63.4,93,81,66,30.03,29.83,9,1,15,0.00
2013-8-3,83.2,74.9,66.7,76.1,67.2,61.4,100,77,61,30.15,29.95,9,2,18,0.00
2013-8-4,78.7,72.5,65.1,76.8,66.9,-23.2,100,82,70,30.16,29.99,6,1,12,0.00
2013-8-5,83.5,76.5,71.5,73.9,71.4,68.7,91,84,69,30.02,29.83,9,1,13,0.00
2013-8-6,90.0,80.4,71.4,76.5,73.5,69.1,92,80,58,29.90,29.78,8,1,12,0.00
2013-8-7,87.1,78.2,69.5,75.1,69.2,64.3,92,75,47,29.99,29.81,8,0,13,0.00
2013-8-8,77.4,71.4,66.7,68.4,65.7,63.5,90,82,68,30.03,29.93,5,0,10,0.00
2013-8-9,82.3,74.0,65.7,69.5,66.9,63.6,93,79,57,30.15,30.01,7,0,10,0.00
2013-8-10,84.5,74.1,62.6,68.0,65.0,60.6,93,74,52,30.22,30.08,7,1,12,0.00
2013-8-11,87.9,75.8,64.1,70.8,66.7,33.5,92,74,21,30.15,29.93,8,1,13,0.00
2013-8-12,87.3,76.5,66.9,72.2,68.8,64.7,93,78,54,30.08,29.94,7,1,15,0.00
2013-8-13,80.4,72.2,64.6,68.6,64.3,60.3,93,77,53,30.15,30.05,8,0,12,0.00
2013-8-14,80.0,69.5,58.8,65.2,62.0,57.0,94,78,54,30.19,30.06,6,0,13,0.00
2013-8-15,74.0,68.3,64.4,64.8,62.7,60.5,91,82,70,30.10,29.98,9,3,16,0.00
2013-8-16,77.5,68.7,62.1,64.1,61.7,59.6,92,78,58,30.16,30.06,8,1,11,0.00
2013-8-17,79.8,70.7,63.8,70.9,60.2,-30.0,100,71,9,30.20,30.06,8,1,13,0.00
2013-8-18,82.5,70.1,55.5,74.4,60.1,-26.2,100,73,51,30.16,30.02,10,1,16,0.00
2013-8-19,87.3,76.1,65.1,70.5,66.7,62.2,90,73,54,30.09,29.94,10,3,18,0.00
2013-8-20,90.8,79.2,69.1,70.6,68.4,66.2,90,71,47,30.02,29.92,10,3,20,0.00
2013-8-21,92.9,80.8,71.2,72.1,69.0,66.6,85,68,46,30.03,29.94,10,3,15,0.00
2013-8-22,89.8,78.9,69.5,77.8,69.2,66.5,100,72,51,30.08,29.97,7,1,12,0.00
2013-8-23,91.1,81.0,71.8,72.1,70.0,24.2,89,70,12,30.07,29.83,9,2,18,0.00
2013-8-24,96.4,83.8,74.3,87.8,70.0,-14.8,100,64,46,30.10,29.35,12,4,20,0.00
2013-8-25,95.0,83.5,72.8,74.0,71.3,-17.7,87,68,47,30.16,29.96,10,4,16,0.00
2013-8-26,96.0,84.4,73.5,72.6,70.5,67.1,88,65,40,30.12,29.99,12,4,18,0.00
2013-8-27,95.7,83.5,73.1,71.0,68.2,63.9,83,61,36,30.01,29.93,10,4,18,0.00
2013-8-28,93.0,81.1,68.4,73.1,68.7,64.0,90,67,40,30.03,29.96,8,2,12,0.00
2013-8-29,98.2,84.8,72.5,74.2,70.5,66.0,90,64,36,30.01,29.90,9,2,15,0.00
2013-8-30,102.0,85.8,72.1,74.7,68.8,59.3,85,61,25,29.93,29.80,8,1,12,0.00
2013-8-31,96.1,83.1,75.6,76.6,72.9,64.9,92,74,38,29.91,29.78,7,0,12,0.00
2013-9-1,86.8,77.1,66.6,72.9,67.5,59.3,93,74,40,30.01,29.71,14,1,27,0.00
2013-9-2,82.5,70.5,59.7,70.5,62.4,-29.0,100,77,9,30.11,30.00,6,0,10,0.00
2013-9-3,87.5,71.7,56.0,64.6,59.8,54.2,94,70,34,30.11,30.01,8,1,11,0.00
2013-9-4,85.9,72.9,59.3,67.2,62.8,57.0,92,72,47,30.17,30.05,6,0,9,0.00
2013-9-5,88.5,76.1,64.3,68.5,64.7,61.3,91,69,44,30.19,30.08,7,0,10,0.00
2013-9-6,95.8,81.0,67.2,85.0,66.2,62.8,100,63,36,30.11,29.92,10,3,16,0.00
2013-9-7,101.3,85.2,72.3,70.9,67.8,61.6,81,59,28,29.95,29.84,9,2,15,0.00
2013-9-8,102.3,85.6,72.5,71.3,67.1,57.3,88,59,23,29.90,29.78,8,1,12,0.00
2013-9-9,96.8,84.5,72.1,67.0,62.7,53.1,74,50,23,29.89,29.81,13,3,22,0.00
2013-9-10,96.8,84.2,72.9,67.5,64.2,60.5,70,52,31,30.02,29.88,12,3,21,0.00
2013-9-11,92.8,77.8,71.1,75.5,69.4,-19.9,91,76,43,30.15,29.97,10,1,24,0.00
2013-9-12,84.6,74.5,65.7,71.1,65.9,57.1,99,76,44,30.21,30.10,8,1,13,0.00
2013-9-13,76.3,65.7,55.7,59.1,54.9,51.6,93,70,43,30.23,30.07,8,0,11,0.00
2013-9-14,81.4,67.9,55.0,60.8,56.2,51.9,91,68,42,30.08,29.88,10,3,17,0.00
2013-9-15,71.5,68.3,63.3,68.3,62.9,-30.6,91,82,69,30.21,29.86,10,2,18,0.00
2013-9-16,63.9,60.5,58.8,60.2,57.2,55.3,100,88,78,30.28,30.17,8,1,12,0.00
2013-9-17,79.7,69.0,60.4,70.2,64.6,58.6,94,86,69,30.17,29.87,11,3,17,0.00
2013-9-18,92.0,79.7,69.2,69.9,67.7,66.1,90,69,43,29.91,29.71,14,6,26,0.00
2013-9-19,88.8,75.6,63.5,69.8,64.7,55.8,76,69,49,30.02,29.74,11,4,18,0.00
2013-9-20,75.5,63.2,52.9,55.7,51.6,45.7,91,69,36,30.13,29.97,5,1,14,0.00
2013-9-21,82.8,64.7,47.5,58.0,52.7,45.8,94,69,38,30.04,29.85,8,1,13,0.00
2013-9-22,81.5,67.7,54.6,58.5,53.7,47.8,92,65,32,29.92,29.78,12,3,22,0.00
2013-9-23,79.3,67.3,54.2,57.1,53.5,50.1,89,63,38,29.83,29.67,14,5,25,0.00
2013-9-24,73.7,66.5,57.9,62.5,58.2,55.6,100,75,61,29.90,29.66,9,2,19,0.00
2013-9-25,82.0,66.2,51.1,72.2,57.5,49.4,100,76,48,29.92,29.72,9,1,14,0.00
2013-9-26,90.3,76.4,64.9,63.4,61.2,58.8,86,62,36,29.79,29.70,14,5,25,0.00
2013-9-27,88.4,78.2,70.5,63.7,62.0,60.4,72,58,41,29.85,29.73,16,6,25,0.00
2013-9-28,76.2,64.1,50.6,66.6,54.7,47.8,100,73,45,30.09,29.66,11,2,20,0.00
2013-9-29,77.2,60.4,44.9,53.6,47.2,-17.1,94,67,4,30.09,29.81,10,2,17,0.00
2013-9-30,82.3,65.1,48.6,56.9,52.5,46.7,93,67,36,29.93,29.74,10,2,17,0.00
2013-10-1,87.3,69.3,53.1,63.1,57.7,51.2,93,70,36,29.94,29.80,7,1,12,0.00
2013-10-2,84.8,73.0,63.8,69.5,65.1,61.2,91,77,52,29.96,29.80,11,3,21,0.00
2013-10-3,84.0,72.8,62.3,70.3,66.1,60.3,93,80,60,29.87,29.65,12,3,21,0.00
2013-10-4,88.9,74.3,53.5,71.1,63.0,42.3,87,69,34,29.97,29.62,14,5,28,0.00
2013-10-5,59.2,50.9,45.5,42.8,38.5,36.3,74,62,46,30.02,29.90,13,5,20,0.00
2013-10-6,62.9,51.6,45.0,48.8,42.0,-38.9,82,70,44,30.04,29.87,11,3,20,0.00
2013-10-7,75.7,56.6,40.3,49.7,43.2,38.6,93,66,29,30.13,30.00,9,1,17,0.00
2013-10-8,78.1,63.7,51.0,50.8,47.8,44.6,79,58,33,30.03,29.90,15,5,24,0.00
2013-10-9,79.7,66.4,55.0,56.7,53.3,49.2,81,64,42,30.00,29.91,12,4,23,0.00
2013-10-10,81.7,68.4,54.6,61.9,57.8,51.7,91,70,49,29.98,29.77,12,4,21,0.00
2013-10-11,81.5,69.2,57.5,61.8,51.6,29.8,86,58,16,29.92,29.66,13,4,23,0.00
2013-10-12,70.5,55.3,42.8,46.6,42.0,34.6,93,66,27,30.29,29.91,8,0,13,0.00
2013-10-13,71.9,55.6,38.7,43.9,40.3,36.0,94,62,29,30.40,30.25,7,1,13,0.00
2013-10-14,65.0,59.3,52.8,61.2,51.4,40.8,94,76,51,30.26,29.74,13,4,23,0.00
2013-10-15,58.1,50.7,44.7,53.6,43.4,40.0,89,76,61,30.12,29.85,11,2,23,0.00
2013-10-16,59.8,50.2,42.4,44.3,41.3,37.8,91,72,45,30.13,29.97,8,1,14,0.00
2013-10-17,64.6,50.7,39.1,47.2,42.4,37.1,93,75,41,30.07,29.90,10,1,14,0.00
2013-10-18,48.3,42.0,36.5,40.6,37.3,34.9,94,83,61,30.16,30.06,6,0,10,0.00
2013-10-19,66.3,47.0,31.7,43.2,37.9,30.5,95,74,36,30.07,29.82,12,2,20,0.00
2013-10-20,66.0,53.0,43.2,50.2,44.0,-35.1,91,73,51,30.01,29.75,6,0,8,0.00
2013-10-21,59.2,46.3,33.0,42.5,38.6,31.5,95,76,50,30.15,29.94,12,1,18,0.00
2013-10-22,62.5,50.4,36.6,47.9,42.4,34.7,93,75,52,30.14,29.90,7,1,16,0.00
2013-10-23,59.0,45.4,34.4,44.9,38.9,32.9,94,79,57,30.20,29.99,8,1,15,0.00
2013-10-24,52.1,42.5,30.9,39.4,34.1,28.6,93,74,41,30.43,30.21,7,0,10,0.00
2013-10-25,60.6,42.9,28.2,37.2,32.1,26.4,94,69,36,30.43,30.09,12,2,20,0.00
2013-10-26,59.5,45.7,32.7,41.9,36.3,30.0,95,72,41,30.22,30.05,7,1,14,0.00
2013-10-27,71.0,48.0,28.2,41.4,34.4,-36.8,93,65,30,30.17,29.83,13,2,20,0.00
2013-10-28,68.8,52.1,37.0,53.9,44.8,34.8,95,77,55,30.13,29.91,8,1,12,0.00
2013-10-29,61.7,57.6,52.6,61.2,55.7,51.0,100,93,91,30.08,29.88,7,1,12,0.00
2013-10-30,58.1,52.8,49.9,56.3,51.1,47.9,95,94,91,29.95,29.72,5,0,8,0.00
2013-10-31,61.1,50.5,44.6,54.8,44.6,-38.0,93,81,52,29.75,29.53,19,1,19,0.00
2013-11-1,63.2,49.8,40.5,46.5,42.0,38.0,91,75,44,30.04,29.65,9,2,19,0.00
2013-11-2,59.6,47.0,37.2,41.4,38.1,34.6,90,73,43,30.24,30.03,7,1,11,0.00
2013-11-3,60.7,52.0,42.3,43.5,39.6,-35.9,79,63,48,30.10,29.72,17,8,38,0.00
2013-11-4,62.7,53.3,42.4,49.0,44.6,39.8,91,73,56,30.09,29.74,12,3,21,0.00
2013-11-5,59.6,50.0,37.8,57.5,47.7,35.9,95,92,81,30.09,29.76,10,3,16,0.00
2013-11-6,45.7,38.7,32.2,38.1,35.2,30.8,95,87,71,30.31,30.05,9,2,14,0.00
2013-11-7,56.2,39.7,29.5,39.9,32.5,28.3,95,78,43,30.43,30.27,7,0,13,0.00
2013-11-8,67.3,52.2,33.4,51.8,38.0,31.0,91,61,33,30.26,29.75,18,5,33,0.00
2013-11-9,67.1,48.4,33.4,43.8,37.6,31.6,94,71,32,30.33,29.93,9,1,16,0.00
2013-11-10,58.8,46.0,32.1,47.6,37.6,30.7,95,74,46,30.41,30.17,10,1,15,0.00
2013-11-11,48.2,38.8,25.8,46.8,34.0,17.8,95,83,63,30.75,30.13,11,4,24,0.00
2013-11-12,35.6,24.9,15.1,19.5,16.6,13.1,92,72,42,30.91,30.63,7,1,13,0.00
2013-11-13,54.1,38.1,22.3,33.4,25.8,17.1,82,63,41,30.63,30.05,14,5,26,0.00
2013-11-14,56.4,44.3,32.6,36.3,31.2,26.1,89,61,44,30.05,29.90,10,3,15,0.00
2013-11-15,60.2,44.6,27.8,48.1,37.8,25.8,94,78,52,29.91,29.58,11,3,19,0.00
2013-11-16,70.6,57.5,45.4,55.3,45.3,30.4,90,67,25,29.58,29.29,15,5,25,0.00
2013-11-17,61.1,50.4,38.0,43.9,37.9,-18.2,92,65,32,30.09,29.23,17,5,32,0.00
2013-11-18,59.4,42.0,28.0,37.8,30.6,26.3,94,68,31,30.28,30.09,8,1,14,0.00
2013-11-19,64.6,49.5,31.2,39.1,31.6,27.3,86,54,28,30.20,29.86,15,5,32,0.00
2013-11-20,64.8,53.1,44.8,47.0,41.3,31.2,89,65,42,29.89,29.71,12,4,20,0.00
2013-11-21,44.7,31.9,23.8,42.2,29.4,21.0,94,90,86,30.55,29.89,12,7,21,0.00
2013-11-22,29.3,24.0,18.4,22.8,19.9,15.4,90,84,69,30.71,30.55,11,3,16,0.00
2013-11-23,27.3,22.9,15.5,23.1,16.7,11.3,91,77,59,30.85,30.62,10,3,17,0.00
2013-11-24,32.2,23.1,14.9,19.6,15.6,-53.9,91,74,52,30.76,30.19,10,4,16,0.00
2013-11-25,42.9,32.3,25.7,33.8,25.3,-50.8,93,76,66,30.24,30.03,10,2,14,0.00
2013-11-26,38.3,27.8,18.7,28.6,20.7,13.9,93,76,40,30.45,30.20,12,3,23,0.00
2013-11-27,36.7,25.6,11.9,29.6,18.0,9.9,92,73,53,30.44,30.07,13,3,19,0.00
2013-11-28,37.1,28.5,21.5,27.8,23.1,-53.6,91,80,68,30.48,30.09,10,2,17,0.00
2013-11-29,55.2,35.4,17.8,35.0,26.9,16.1,93,73,45,30.48,30.14,11,2,18,0.00
2013-11-30,57.6,38.2,25.3,40.7,31.5,23.2,100,78,52,30.14,30.04,5,0,6,0.00
2013-12-1,56.0,36.8,23.4,39.4,30.9,21.9,94,81,52,30.12,29.82,6,0,8,0.00
2013-12-2,62.6,44.4,29.8,42.2,36.3,27.8,92,75,45,29.83,29.51,7,0,10,0.00
2013-12-3,53.4,42.7,35.2,40.8,37.6,33.0,95,82,61,29.63,29.47,8,2,14,0.00
2013-12-4,38.9,26.3,18.4,36.6,21.7,-57.2,96,86,75,30.11,29.57,10,5,17,0.00
2013-12-5,19.0,15.7,10.9,14.7,7.9,4.2,87,71,60,30.43,30.09,9,3,15,0.00
2013-12-6,15.1,10.9,4.8,4.0,2.5,0.7,83,68,58,30.68,30.41,9,3,15,0.00
2013-12-7,19.0,10.7,-0.4,9.5,3.1,-2.9,89,72,53,30.73,30.34,8,2,12,0.00
2013-12-8,22.9,17.7,8.8,20.5,14.8,-60.5,93,90,69,30.34,29.95,9,1,13,0.00
2013-12-9,14.7,7.1,-1.3,7.6,2.9,-3.5,94,83,66,30.40,30.17,9,1,13,0.00
2013-12-10,35.7,22.1,10.7,26.2,16.4,7.6,91,79,64,30.28,30.10,8,2,17,0.00
2013-12-11,27.0,13.7,5.9,23.8,8.6,2.7,94,80,66,30.68,30.21,11,3,17,0.00
2013-12-12,37.9,22.9,6.6,27.5,17.1,3.8,92,79,65,30.53,30.07,9,2,12,0.00
2013-12-13,40.3,28.7,16.0,34.9,25.9,14.2,94,89,79,30.07,29.79,10,2,19,0.00
2013-12-14,28.7,22.3,16.4,23.5,19.5,14.8,93,89,78,30.23,30.01,11,4,16,0.00
2013-12-15,48.4,30.8,15.4,36.5,26.3,-50.3,94,84,60,30.18,29.87,6,0,9,0.00
2013-12-16,58.4,36.6,23.8,40.7,31.1,22.3,94,82,49,30.18,29.95,8,1,13,0.00
2013-12-17,46.4,32.9,22.2,34.5,26.6,20.8,95,79,49,30.32,30.13,9,1,14,0.00
2013-12-18,63.9,46.3,29.6,37.7,33.1,24.6,82,61,33,30.13,29.68,11,4,20,0.00
2013-12-19,45.0,35.7,22.1,37.9,31.8,-50.6,94,85,75,29.84,29.63,12,4,18,0.00
2013-12-20,22.0,19.0,14.8,20.3,16.5,12.9,94,89,85,29.99,29.82,11,4,19,0.00
2013-12-21,27.0,23.8,21.0,23.6,20.8,17.8,95,88,82,29.89,29.68,10,3,20,0.00
2013-12-22,24.4,17.8,-2.0,22.3,15.2,-69.1,95,90,78,30.39,29.80,9,0,14,0.00
2013-12-23,14.0,8.9,-2.4,9.3,5.5,-4.2,100,86,74,30.62,30.38,7,1,11,0.00
2013-12-24,27.7,18.5,7.1,26.3,16.1,4.8,95,90,84,30.53,30.11,12,4,20,0.00
2013-12-25,44.9,27.9,15.5,34.2,24.2,14.2,95,86,63,30.34,30.22,8,1,12,0.00
2013-12-26,42.9,29.2,17.7,33.1,24.9,16.1,93,84,67,30.29,30.13,9,2,14,0.00
2013-12-27,49.9,33.5,17.8,34.3,27.0,16.3,94,78,53,30.29,30.11,8,3,14,0.00
2013-12-28,50.1,38.9,25.9,36.4,32.4,21.4,92,78,56,30.11,29.79,13,4,24,0.00
2013-12-29,25.7,15.1,7.4,20.7,6.4,-64.4,85,69,45,30.39,30.09,16,5,22,0.00
2013-12-30,33.7,20.8,7.3,24.9,13.9,3.6,100,74,62,30.28,30.09,10,3,16,0.00
2013-12-31,48.4,29.5,14.4,34.4,24.0,12.5,93,81,55,30.29,29.96,12,3,22,0.00
2014-1-1,19.3,13.6,4.4,16.9,11.4,-65.2,93,90,87,30.39,30.03,12,3,19,0.00
2014-1-2,15.2,7.2,-5.4,11.1,4.5,-7.3,93,88,81,30.46,30.36,0,0,0,0.00